Hourly Data Report for July 06, 2022

KUGAARUK CLIMATE
NUNAVUT
Current Station Operator: ECCC - MSC

68°32'15.060" N
89°47'47.020" W
15.80 m
2303094
71407
NBB

Download Data

Hourly Data (July 2022)
Hourly Data Report for July 6, 2022
TIME
LST
Temp Definition
°C
Dew Point Definition
°C
Rel Hum Definition
%
Precip. Amount Definition
mm

Wind Dir Definition
10's deg

Wind Spd Definition
km/h
Visibility Definition
km
Stn Press Definition
kPa
Hmdx Definition


Wind Chill Definition


Weather Definition


00:00 3.1 -1.3 73 0.0 10 7   101.36     LegendNANA
01:00 3.2 -1.1 74 0.0 11 6   101.38     LegendNANA
02:00 2.8 -0.1 81 0.0 25 8   101.39     LegendNANA
03:00 3.4 -0.4 76 0.0 25 14   101.40     LegendNANA
04:00 4.3 -0.2 73 0.0 26 14   101.43     LegendNANA
05:00 5.0 -0.2 69 0.0 26 12   101.43     LegendNANA
06:00 6.6 0.7 66 0.0 24 15   101.43     LegendNANA
07:00 7.2 0.5 62 0.0 26 14   101.42     LegendNANA
08:00 8.5 1.5 61 0.0 26 15   101.39     LegendNANA
09:00 9.6 1.6 58 0.0 24 12   101.39     LegendNANA
10:00 9.7 2.1 59 0.0 25 13   101.38     LegendNANA
11:00 10.7 1.7 54 0.0 24 13   101.35     LegendNANA
12:00 13.6 2.7 48 0.0 25 9   101.33     LegendNANA
13:00 13.4 1.9 46 0.0 1 20   101.32     LegendNANA
14:00 14.1 1.0 41 0.0 2 15   101.30     LegendNANA
15:00 13.8 3.1 49 0.0 3 18   101.29     LegendNANA
16:00 13.0 3.6 53 0.0 2 22   101.28     LegendNANA
17:00 12.1 3.8 57 0.0 2 20   101.27     LegendNANA
18:00 12.0 3.9 58 0.0 1 6   101.28     LegendNANA
19:00 12.1 4.0 58 0.0 5 5   101.27     LegendNANA
20:00 9.4 3.6 67 0.0 26 8   101.27     LegendNANA
21:00 7.9 3.3 73 0.0 26 7   101.27     LegendNANA
22:00 8.9 4.1 72 0.0 25 11   101.25     LegendNANA
23:00 7.6 3.8 77 0.0 25 9   101.30     LegendNANA

Notes on Data Quality.

Legend

  • E = Estimated
  • M = Missing
  • NA = Not Available*
  • [empty] = Indicates an unobserved value
Date modified: